Location: Eaton Estates
(41.3089°N, 82.0057°W)
Time: 13:41:04
(UTC+00:00)

NOAA 19 - Visible Passes

Search period start: 27 March 2023 00:00
Search period end: 06 April 2023 00:00
Orbit: 839 x 861 km, 99.1° (Epoch: 27 March)

Date Brightness Start Highest point End Pass type
(mag) Time Alt. Az. Time Alt. Az. Time Alt. Az.
27 Mar 5.4 00:45:19 10° SE 00:50:35 49° ENE 00:55:51 10° N visible
27 Mar 7.3 02:27:17 10° SW 02:31:27 22° W 02:35:39 10° NW visible
28 Mar 5.7 00:33:36 10° SE 00:38:38 39° ENE 00:43:41 10° N visible
28 Mar 7.0 02:14:40 10° SSW 02:19:20 28° W 02:24:00 10° NW visible
29 Mar 6.0 00:21:58 10° SE 00:26:43 31° ENE 00:31:27 10° N visible
29 Mar 6.6 02:02:14 10° SSW 02:07:14 36° W 02:12:16 10° NNW visible
30 Mar 6.3 00:10:28 10° ESE 00:14:49 25° ENE 00:19:10 10° N visible
30 Mar 6.1 01:49:55 10° S 01:55:10 46° W 02:00:25 10° NNW visible
31 Mar 5.7 01:37:42 10° S 01:43:06 59° WSW 01:48:31 10° NNW visible
01 Apr 5.3 01:25:36 10° S 01:31:04 76° WSW 01:36:33 10° NNW visible
02 Apr 5.1 01:13:34 10° SSE 01:19:03 85° ENE 01:24:33 10° NNW visible
02 Apr 7.9 02:58:20 10° WSW 03:00:20 12° W 03:02:21 10° WNW visible
03 Apr 5.2 01:01:38 10° SSE 01:07:03 67° ENE 01:12:29 10° N visible
03 Apr 7.7 02:44:55 10° SW 02:48:10 16° W 02:51:25 10° NW visible
04 Apr 5.4 00:49:47 10° SE 00:55:05 53° ENE 01:00:22 10° N visible
04 Apr 7.4 02:32:01 10° SW 02:36:00 20° W 02:40:00 10° NW visible
05 Apr 5.7 00:38:02 10° SE 00:43:07 41° ENE 00:48:13 10° N visible
05 Apr 7.1 02:19:21 10° SSW 02:23:52 26° W 02:28:25 10° NW visible
